Regional Weather Roundup
Issued by NWS

Home | Current Version | Previous Version | Text Only | Print | Product List | Glossary On
Versions: 1 2 3 4 5 6 7 8 9 10 11 12 13 14 15 16 17 18 19 20 21 22 23 24 25 26 27 28 29 30 31 32 33 34 35 36 37 38 39 40 41 42 43 44 45 46 47 48 49 50
000
ASUS43 KTOP 291408
RWRKS

WEATHER ROUNDUP FOR KANSAS
NATIONAL WEATHER SERVICE GOODLAND KS
900 AM CDT FRI AUG 29 2014

NOTE:  "FAIR" INDICATES FEW OR NO CLOUDS BELOW 12,000 FEET WITH NO
SIGNIFICANT WEATHER AND/OR OBSTRUCTIONS TO VISIBILITY.

KSZ001>006-013>018-027>032-041>047-291500-
NORTHWEST KANSAS

CITY           SKY/WX    TMP DP  RH WIND       PRES   REMARKS
GOODLAND       SUNNY     62  54  74 NW7       29.99S
HAYS           MOSUNNY   70  57  64 NW12      29.90S
HILL CITY      MOSUNNY   63  59  87 W6        29.91S
RUSSELL        PTSUNNY   69  62  78 W10       29.88R
$$

KSZ061>065-074>080-084>089-291500-
SOUTHWEST KANSAS

CITY           SKY/WX    TMP DP  RH WIND       PRES   REMARKS
DODGE CITY     SUNNY     68  58  70 W8        29.94S
ELKHART          N/A     65  53  65 W6          N/A
GARDEN CITY    SUNNY     62  57  83 W10       29.97R
GREAT BEND     SUNNY     66  61  82 W8        29.90S
LIBERAL        SUNNY     66  54  63 NW9       30.00R
PRATT          SUNNY     68  61  77 W6        29.92S
$$

KSZ066>073-081>083-090>101-291500-
SOUTHEAST KANSAS

CITY           SKY/WX    TMP DP  RH WIND       PRES   REMARKS
CHANUTE        LGT RAIN  70  66  87 SW7       29.90S
COFFEYVILLE    LGT RAIN  70  68  93 W8        29.91R FOG
HUTCHINSON     MOSUNNY   70  66  87 S6        29.89F
MEDICINE LODGE   N/A     70  64  81 W7        29.92R
NEWTON         PTSUNNY   66  61  82 S6        29.93S
PARSONS        CLOUDY    72  68  87 S8        29.92R
WICHITA INTL   PTSUNNY   71  65  81 CALM      29.90R
WICHITA JABRA  PTSUNNY   70  67  90 S6        29.90S
WICHITA MCCONL PTSUNNY   69  69 100 CALM      29.91R
WINFIELD       CLOUDY    71  69  93 CALM      29.92R
$$

KSZ007>012-019>026-033>040-048>060-102>105-291500-
NORTHEAST KANSAS

CITY           SKY/WX    TMP DP  RH WIND       PRES   REMARKS
CONCORDIA      CLOUDY    68  64  87 SW7       29.84F
EMPORIA        LGT RAIN  68  66  93 SE7       29.89F
LAWRENCE       PTSUNNY   78  66  66 S3        29.88R
MANHATTAN      CLOUDY    70  65  84 S7        29.88R
MARYSVILLE     LGT RAIN  68  66  94 S3        29.85S
OLATHE IND     MOSUNNY   76  66  71 S8        29.89S
OLATHE EXE     MOSUNNY   74  66  76 S7        29.88S
SALINA         CLOUDY    69  65  86 S7        29.87F
TOPEKA BILLARD PTSUNNY   74  67  78 SW12G18   29.88R
TOPEKA FORBES  CLOUDY    73  65  75 S10       29.88S
$$


USA.gov is the U.S. government's official web portal to all federal, state and local government web resources and services.